#timestamp,LO_Frequency,Hit,Temp,Hum 
1493830815.4,286047051.1,N,0.0,0.0
1493830835.3,286047054.4,N,0.0,0.0
1493830855.1,286047054.4,N,0.0,0.0
1493830875.8,286047063.3,N,0.0,0.0
1493830895.7,286047050.6,N,0.0,0.0
1493830915.5,286047051.7,N,0.0,0.0
1493830935.3,286047051.9,N,0.0,0.0
1493830955.2,286047053.5,N,0.0,0.0
1493830975.9,286047056.9,N,0.0,0.0
1493830995.7,286047058.0,N,0.0,0.0
1493831015.6,286047062.2,N,0.0,0.0
1493831035.4,286047068.1,N,0.0,0.0
1493831055.2,286047066.2,N,0.0,0.0
1493831075.1,286047068.9,N,0.0,0.0
1493831076.0,286047068.9,N,0.0,0.0
1493831095.8,286047072.5,N,0.0,0.0
1493831115.1,286047074.6,N,0.0,0.0
1493831116.0,286047074.6,N,0.0,0.0
1493831135.8,286047071.8,N,0.0,0.0
1493831155.6,286047083.3,Y,0.0,0.0
1493831175.5,286047056.1,N,0.0,0.0
1493831195.3,286047058.0,N,0.0,0.0
1493831215.1,286047057.6,N,0.0,0.0
1493831235.9,286047058.7,N,0.0,0.0
1493831255.7,286047058.7,N,0.0,0.0
1493831275.5,286047049.2,N,0.0,0.0
1493831295.4,286047049.5,N,0.0,0.0
1493831315.2,286047053.9,N,0.0,0.0
1493831335.0,286047073.2,N,0.0,0.0
1493831335.9,286047073.2,N,0.0,0.0
1493831355.8,286047055.3,N,0.0,0.0
1493831375.6,286047070.3,N,0.0,0.0
1493831395.4,286047054.2,N,0.0,0.0
1493831415.3,286047058.8,N,0.0,0.0
1493831435.1,286047057.9,N,0.0,0.0
1493831436.0,286047057.9,N,0.0,0.0
1493831455.8,286047071.2,N,0.0,0.0
1493831475.7,286047060.1,N,0.0,0.0
1493831495.5,286047059.0,N,0.0,0.0
1493831515.3,286047060.9,N,0.0,0.0
1493831535.2,286047061.4,N,0.0,0.0
1493831555.9,286047065.7,N,0.0,0.0
1493831575.7,286047064.9,N,0.0,0.0
1493831595.6,286047065.2,N,0.0,0.0
1493831615.4,286047066.5,N,0.0,0.0
1493831635.2,286047067.1,N,0.0,0.0
1493831655.0,286047069.6,N,0.0,0.0
1493831656.0,286047069.6,N,0.0,0.0
1493831675.8,286047069.2,N,0.0,0.0
1493831695.6,286047066.3,N,0.0,0.0
1493831715.4,286047063.8,N,0.0,0.0
1493831735.3,286047066.9,N,0.0,0.0
1493831755.1,286047067.8,N,0.0,0.0
1493831775.9,286047068.3,Y,0.0,0.0
1493831795.7,286047006.3,N,0.0,0.0
1493831815.5,286047020.0,N,0.0,0.0
1493831835.3,286047019.7,N,0.0,0.0
1493831855.2,286047017.4,N,0.0,0.0
1493831875.0,286047021.4,N,0.0,0.0
1493831875.9,286047021.4,N,0.0,0.0
1493831895.8,286047021.8,N,0.0,0.0
1493831915.6,286047023.5,N,0.0,0.0
1493831935.4,286047022.6,N,0.0,0.0
1493831955.2,286046995.6,N,0.0,0.0
1493831975.1,286047029.9,N,0.0,0.0
1493831976.0,286047029.9,N,0.0,0.0
1493831995.8,286047028.8,N,0.0,0.0
1493832015.6,286047029.1,N,0.0,0.0
1493832035.5,286046863.7,Y,0.0,0.0
1493832055.3,286046986.4,N,0.0,0.0
1493832075.1,286046986.3,N,0.0,0.0
1493832095.9,286046982.6,N,0.0,0.0
1493832115.7,286046981.4,N,0.0,0.0
1493832135.5,286046981.0,N,0.0,0.0
1493832155.4,286046986.8,N,0.0,0.0
1493832175.2,286046985.2,N,0.0,0.0
1493832195.0,286046984.4,N,0.0,0.0
1493832195.9,286046984.4,N,0.0,0.0
1493832215.8,286046983.7,N,0.0,0.0
1493832235.6,286046984.7,N,0.0,0.0
1493832255.4,286046984.7,N,0.0,0.0
1493832275.3,286046984.6,N,0.0,0.0
1493832295.1,286046986.3,N,0.0,0.0
1493832315.8,286046983.8,N,0.0,0.0
1493832335.7,286046984.0,N,0.0,0.0
1493832355.5,286046982.8,N,0.0,0.0
1493832375.3,286046984.7,N,0.0,0.0
1493832395.2,286046982.1,N,0.0,0.0
1493832415.9,286046983.1,N,0.0,0.0
1493832435.7,286046980.8,N,0.0,0.0
1493832455.6,286046982.4,N,0.0,0.0
1493832475.4,286046981.8,N,0.0,0.0
1493832495.2,286046982.4,N,0.0,0.0
1493832515.0,286046985.7,N,0.0,0.0
1493832516.0,286046985.7,N,0.0,0.0
1493832535.8,286046986.8,N,0.0,0.0
1493832555.6,286046986.5,N,0.0,0.0
1493832575.4,286046985.2,N,0.0,0.0
1493832595.3,286046985.3,N,0.0,0.0
1493832615.1,286046989.4,N,0.0,0.0
1493832635.8,286046985.5,N,0.0,0.0
1493832655.7,286046988.6,N,0.0,0.0
1493832675.5,286046993.2,N,0.0,0.0
1493832695.3,286046992.9,N,0.0,0.0
1493832715.2,286046993.0,N,0.0,0.0
1493832735.0,286046998.1,N,0.0,0.0
1493832735.9,286046998.1,N,0.0,0.0
1493832755.7,286047001.4,N,0.0,0.0
1493832775.6,286047006.8,N,0.0,0.0
1493832795.4,286047007.6,N,0.0,0.0
1493832815.2,286047006.1,N,0.0,0.0
1493832835.1,286047011.2,N,0.0,0.0
1493832836.0,286047011.2,N,0.0,0.0
1493832855.8,286047014.8,N,0.0,0.0
1493832875.6,286047018.0,N,0.0,0.0
1493832895.5,286047021.9,N,0.0,0.0
1493832915.3,286047025.2,N,0.0,0.0
1493832935.1,286047024.5,N,0.0,0.0
1493832955.9,286047024.9,N,0.0,0.0
1493832975.7,286047023.8,N,0.0,0.0
1493832995.5,286047025.5,N,0.0,0.0
1493833015.4,286047025.7,N,0.0,0.0
1493833035.2,286047022.3,N,0.0,0.0
1493833055.0,286047020.6,N,0.0,0.0
1493833055.9,286047020.6,N,0.0,0.0
1493833075.8,286047020.2,N,0.0,0.0
1493833095.6,286047013.5,N,0.0,0.0
1493833115.4,286047011.2,N,0.0,0.0
1493833135.3,286047010.1,N,0.0,0.0
1493833155.1,286047015.0,N,0.0,0.0
1493833156.0,286047015.0,N,0.0,0.0
1493833175.8,286047010.4,N,0.0,0.0
1493833195.7,286047004.8,N,0.0,0.0
1493833215.5,286047008.2,N,0.0,0.0
1493833235.3,286047008.7,N,0.0,0.0
1493833255.2,286047011.6,N,0.0,0.0
1493833275.9,286047012.2,N,0.0,0.0
1493833295.7,286047010.6,N,0.0,0.0
1493833315.5,286047011.2,N,0.0,0.0
1493833335.4,286047010.5,N,0.0,0.0
1493833355.2,286047018.0,N,0.0,0.0
1493833375.0,286047010.0,N,0.0,0.0
1493833376.0,286047010.0,N,0.0,0.0
1493833395.8,286047010.5,N,0.0,0.0
1493833415.6,286047011.6,N,0.0,0.0
1493833435.4,286047009.1,N,0.0,0.0
1493833455.3,286047010.8,N,0.0,0.0
1493833475.1,286047013.8,N,0.0,0.0
1493833495.8,286047009.7,N,0.0,0.0
1493833515.7,286047012.0,N,0.0,0.0
1493833535.5,286047010.8,N,0.0,0.0
1493833555.3,286047011.8,N,0.0,0.0
1493833575.2,286047009.7,N,0.0,0.0
1493833595.9,286047011.8,N,0.0,0.0
1493833615.7,286047013.8,N,0.0,0.0
1493833635.6,286047009.8,N,0.0,0.0
1493833655.4,286047011.2,N,0.0,0.0
1493833675.2,286047010.1,N,0.0,0.0
1493833695.1,286047008.1,N,0.0,0.0
1493833696.0,286047008.1,N,0.0,0.0
1493833715.8,286047010.8,N,0.0,0.0
1493833735.6,286047011.2,N,0.0,0.0
1493833755.5,286047011.9,N,0.0,0.0
1493833775.3,286047012.1,N,0.0,0.0
1493833795.1,286047012.5,N,0.0,0.0
1493833815.9,286047013.2,N,0.0,0.0
1493833835.7,286047015.6,N,0.0,0.0
1493833855.5,286047013.5,N,0.0,0.0
1493833875.4,286047013.7,N,0.0,0.0
1493833895.2,286047014.0,N,0.0,0.0
1493833915.0,286047015.0,N,0.0,0.0
1493833915.9,286047015.0,N,0.0,0.0
1493833935.8,286047011.9,N,0.0,0.0
1493833955.6,286047010.9,N,0.0,0.0
1493833975.4,286047013.9,N,0.0,0.0
1493833995.3,286047013.3,N,0.0,0.0
1493834015.1,286047014.0,N,0.0,0.0
1493834016.0,286047014.0,N,0.0,0.0
1493834035.8,286047013.0,N,0.0,0.0
1493834055.7,286047014.9,N,0.0,0.0
1493834075.5,286047014.7,N,0.0,0.0
1493834095.3,286047014.3,N,0.0,0.0
1493834115.1,286047014.2,N,0.0,0.0
1493834135.9,286047014.4,N,0.0,0.0
1493834155.7,286047016.6,N,0.0,0.0
1493834175.5,286047016.6,N,0.0,0.0
1493834195.4,286047020.0,N,0.0,0.0
1493834215.2,286047021.3,N,0.0,0.0
1493834235.0,286047018.9,N,0.0,0.0
1493834235.9,286047018.9,N,0.0,0.0
1493834255.8,286047024.4,N,0.0,0.0
1493834275.6,286047019.0,N,0.0,0.0
1493834295.4,286047019.0,N,0.0,0.0
1493834315.3,286047017.3,N,0.0,0.0
1493834335.1,286047019.2,N,0.0,0.0
1493834355.8,286047018.1,N,0.0,0.0
1493834375.7,286047020.4,N,0.0,0.0
1493834395.5,286047018.3,N,0.0,0.0
